DECAYED

COSMOS 2251 DEB, 36052 (Decayed)

Orbit data source: Space-Track

COSMOS 2251 DEB, 36052 was space debris in LEO originally from a launch on Wed, 16 Jun 1993 UTC launched from the Plesetsk Missile And Space Complex (PKMTR). The debris from Iridium 33, an American commercial communications satellite, has been tracked extensively since its accidental collision with the defunct Russian satellite Cosmos 2251 in 2009. This event, occurring at high speed in low Earth orbit (LEO), generated thousands of pieces of space debris, significantly increasing the risk of further collisions. The Iridium 33 debris cloud has impacted space traffic management and orbital debris mitigation strategies, making it a subject of ongoing study in space situational awareness.

Not visible in the next 10 days
Identifier
36052, 1993-036AXP
Orbit
Decayed
Country
Flag of CISCIS
Related business
Manufacturer
Unknown
Mission
Decayed spacecraft
Bus & Motor
Unknown
Mass
Unknown
Launch date (UTC)
1993-06-16 (33 years ago)
Launch vehicle
Unknown
Launch site
Plesetsk Missile And Space Complex (PKMTR)
Object type
Payload
Rocket body
Debris
Shape & HBR
Unknown shape, 0.1 m
Radar Cross Section
Small (<0.1 m²)

Expand to show TLE details & history
Last TLE update: 3 months ago

TLE from 3 months ago
0 COSMOS 2251 DEB
1 36052U 93036AXP 25319.55409036  .04662245  44380-1  13343-1 0  9993
2 36052  73.9693  37.3207 0017895 345.3809  14.6909 15.98719223861752
Epoch: 2025-11-15T13:17Z
TLE epoch observation values (Epoch: 2025-11-15T13:17:53.407Z)
Latitude
0.00003°
Longitude
142.96661°
Altitude
269.249 km
Speed
7.753 km/s
True Right ascension
02h 29m 16s
True Declination
0° 00' 00"
Sunlit
Object was in full shadow at epoch
Visualization orbit readout
Latitude
Unknown
Longitude
Unknown
Altitude
Unknown
Speed
Unknown
Apparent Right ascension
Unknown
Apparent Declination
Unknown
Sunlit
N/A
Visualization observer readout
Local Sidereal Time
21:51:34
Azimuth
Unknown
Elevation
Unknown
Doppler factor
Unknown
Orbital elements
Apogee altitude
287.331 km
Perigee altitude
263.518 km
Semi-major axis
6,653.562 km
Eccentricity
0.00179
Inclination
73.9693°
RAAN
37.3207°
Arg. of periapsis
345.3809°
True anomaly
14.74302°
Mean anomaly
14.6909°
Eccentric anomaly
14.71695°
Mean motion
3.9991 °/min
Orbital period
90.02 mins
BSTAR
0.013343
Loading maneuver chart data...
Computing Atmospheric mass density...

Documentation

Showing up to 5 results
|